Volver al catálogo

ATLAS 5 CENTAUR DEB

LostHEO
NORAD 52969·DEBRIS·🇺🇸 United States

Lanzado Oct 17, 2018 desde Cape Canaveral Space Force Station

Loading…

Próximos Pases (próximas 24 horas)

TLE

ObsoletoSource: Space-Track

Época: Jun 23, 2026, 11:10 UTC

1 52969U 18079GT  26174.46557877 -.00000095  00000-0  00000-0 0  9990
2 52969  13.1909  26.0682 4559089 355.1191   1.7036  1.94552018 28894

Sigue ATLAS 5 CENTAUR DEB en tiempo real con AllMySat

Download on the App Store